This is the latest recevied weather packets stored in our database for station/object N3TUQ-2. If no packets are shown the sender has not sent any weather packets the latest 1 day(s).
| Time | Temp. | Humidity | Pressure | Rain* | Wind** | Luminosity | Snow |
|---|---|---|---|---|---|---|---|
| 1778100080 | 8.33° C | 95% | 1006.6 hPa | 0 mm | - | - | - |
| 1778099300 | 8.33° C | 95% | 1007.5 hPa | 0 mm | - | - | - |
| 1778098520 | 8.33° C | 94% | 1007.1 hPa | 0 mm | - | - | - |
| 1778094620 | 8.33° C | 96% | 1006.2 hPa | 0 mm | - | - | - |
| 1778093840 | 7.78° C | 95% | 1006.3 hPa | 0 mm | - | - | - |
| 1778089940 | 8.33° C | 97% | 1005.6 hPa | 1.27 mm | - | - | - |
| 1778089160 | 7.78° C | 96% | 1005.4 hPa | 1.02 mm | - | - | - |
| 1778084480 | 12.78° C | 97% | 1004.3 hPa | 0 mm | - | - | - |
| 1778083700 | 12.78° C | 97% | 1004.3 hPa | 0 mm | - | - | - |
| 1778079800 | 12.22° C | 97% | 1003.9 hPa | 0 mm | - | - | - |
| 1778079020 | 12.22° C | 97% | 1004.1 hPa | 0.25 mm | - | - | - |
| 1778078240 | 12.22° C | 97% | 1004.2 hPa | 0.51 mm | - | - | - |
| 1778074340 | 12.22° C | 97% | 1004 hPa | 1.52 mm | - | - | - |
| 1778073560 | 12.22° C | 98% | 1004.1 hPa | 2.03 mm | - | - | - |
| 1778069659 | 12.22° C | 97% | 1004.9 hPa | 2.54 mm | - | - | - |
| 1778068880 | 12.22° C | 97% | 1004.9 hPa | 2.03 mm | - | - | - |
| 1778068100 | 12.22° C | 97% | 1004.5 hPa | 2.03 mm | - | - | - |
| 1778064979 | 11.67° C | 97% | 1004.4 hPa | 1.02 mm | - | - | - |
| 1778064199 | 11.67° C | 97% | 1004.3 hPa | 0.76 mm | - | - | - |
| 1778063420 | 12.22° C | 96% | 1004.4 hPa | 0.76 mm | - | - | - |
| 1778061079 | 12.22° C | 96% | 1004.7 hPa | 1.27 mm | - | - | - |
| 1778060299 | 12.22° C | 95% | 1004.6 hPa | 1.27 mm | - | - | - |
| 1778059519 | 12.22° C | 95% | 1004.7 hPa | 1.02 mm | - | - | - |
| 1778058739 | 12.22° C | 94% | 1004.8 hPa | 0.76 mm | - | - | - |
| 1778054839 | 12.78° C | 91% | 1005.2 hPa | 0.51 mm | - | - | - |
* Rain latest hour (hover to see other rain measurements)
** Current wind speed in m/s (hover to see current wind gust speed)